WetterOnline ( https://www.wetteronline.de )

Wetter aktuell Weilheim

Aktuelles Wetter: Hohenpeißenberg (986m)

6-stündlich | Neueste Meldungen
Ortszeit Temperatur Wetter
Fr, 24.05. 8:00 12.8° C wolkenlos
Fr, 24.05. 2:00 10.9° C wolkig
Do, 23.05. 20:00 13.2° C leicht bewölkt
Do, 23.05. 14:00 12.8° C wolkig
Do, 23.05. 8:00 8.8° C bewölkt
Do, 23.05. 2:00 8.5° C bewölkt
Mi, 22.05. 20:00 8.7° C Sprühregen
Mi, 22.05. 14:00 8.8° C Sprühregen
Ortszeit Temperatur Wetter
Fr, 24.05. 11:30 14.4° C leicht bewölkt
Fr, 24.05. 11:20 14.4° C leicht bewölkt
Fr, 24.05. 11:10 14.8° C fast wolkenlos
Fr, 24.05. 11:00 15.0° C wolkenlos
Fr, 24.05. 10:50 15.0° C wolkenlos
Fr, 24.05. 10:40 13.7° C wolkenlos
Fr, 24.05. 10:30 14.1° C wolkenlos
Fr, 24.05. 10:00 14.4° C fast wolkenlos
Fr, 24.05. 9:30 13.8° C leicht bewölkt
Fr, 24.05. 9:00 12.8° C wolkenlos
Fr, 24.05. 8:30 13.5° C fast wolkenlos
Ortszeit Relative Feuchte Sichtweite
Fr, 24.05. 8:00 66% 15 km
Fr, 24.05. 2:00 66% 35 km
Do, 23.05. 20:00 57% 50 km
Do, 23.05. 14:00 67% 40 km
Do, 23.05. 8:00 85% 18 km
Do, 23.05. 2:00 90% 17 km
Mi, 22.05. 20:00 100% 3.1 km
Mi, 22.05. 14:00 100% 22 km
Ortszeit Relative Feuchte Sichtweite
Fr, 24.05. 11:30 60% 45 km
Fr, 24.05. 11:20 60% -
Fr, 24.05. 11:10 62% -
Fr, 24.05. 11:00 61% 35 km
Fr, 24.05. 10:50 61% -
Fr, 24.05. 10:40 62% -
Fr, 24.05. 10:30 61% 40 km
Fr, 24.05. 10:00 63% 30 km
Fr, 24.05. 9:30 61% 45 km
Fr, 24.05. 9:00 62% 40 km
Fr, 24.05. 8:30 60% 45 km
Ortszeit Niederschlagsmenge Niederschlagsart
Fr, 24.05. 8:00 0.0 l/m2 in 12 Std. -
Fr, 24.05. 2:00 0.0 l/m2 in 6 Std. -
Do, 23.05. 20:00 0.0 l/m2 in 12 Std. -
Do, 23.05. 14:00 0.0 l/m2 in 6 Std. -
Do, 23.05. 8:00 0.1 l/m2 in 12 Std. -
Do, 23.05. 2:00 0.1 l/m2 in 6 Std. Regen
Mi, 22.05. 20:00 0.9 l/m2 in 12 Std. Regen
Mi, 22.05. 14:00 0.9 l/m2 in 6 Std. Regen
Ortszeit Niederschlagsmenge Niederschlagsart
Fr, 24.05. 11:30 0.0 l/m2 in 1 Std. -
Fr, 24.05. 11:20 keine Meldung -
Fr, 24.05. 11:10 keine Meldung -
Fr, 24.05. 11:00 0.0 l/m2 in 1 Std. -
Fr, 24.05. 10:50 keine Meldung -
Fr, 24.05. 10:40 keine Meldung -
Fr, 24.05. 10:30 0.0 l/m2 in 1 Std. -
Fr, 24.05. 10:00 0.0 l/m2 in 1 Std. -
Fr, 24.05. 9:30 0.0 l/m2 in 1 Std. -
Fr, 24.05. 9:00 0.0 l/m2 in 1 Std. -
Fr, 24.05. 8:30 0.0 l/m2 in 1 Std. -
Ortszeit Stärke Spitze Richtung
km/h Bft. km/h Grad Sektor
Fr, 24.05. 8:00 4 1 11 60° NO
Fr, 24.05. 2:00 9 2 26 110° O
Do, 23.05. 20:00 11 2 22 50° NO
Do, 23.05. 14:00 11 2 22 20° N
Do, 23.05. 8:00 4 1 18 80° O
Do, 23.05. 2:00 7 2 18 20° N
Mi, 22.05. 20:00 11 2 32 10° N
Mi, 22.05. 14:00 15 3 37 250° W
Ortszeit Stärke Spitze Richtung
km/h Bft. km/h Grad Sektor
Fr, 24.05. 11:30 11 2 18 20° N
Fr, 24.05. 11:20 11 2 - 20° N
Fr, 24.05. 11:10 9 2 - 30° NO
Fr, 24.05. 11:00 7 2 15 10° N
Fr, 24.05. 10:50 7 2 - 10° N
Fr, 24.05. 10:40 7 2 - 10° N
Fr, 24.05. 10:30 7 2 14 30° NO
Fr, 24.05. 10:00 4 1 11 20° N
Fr, 24.05. 9:30 4 1 7 230° SW
Fr, 24.05. 9:00 4 1 7 30° NO
Fr, 24.05. 8:30 2 1 6 210° SW
Ortszeit Untergrenze Bedeckung Gattung
total tief tief mittel hoch
Fr, 24.05. 8:00 - 0/8 0/8 - - -
Fr, 24.05. 2:00 10500 m 8/8 0/8 - - -
Do, 23.05. 20:00 10500 m 8/8 0/8 - - -
Do, 23.05. 14:00 750 m 7/8 3/8 - - -
Do, 23.05. 8:00 390 m 7/8 7/8 - - -
Do, 23.05. 2:00 690 m 7/8 7/8 - - -
Mi, 22.05. 20:00 30 m 8/8 8/8 - - -
Mi, 22.05. 14:00 240 m 8/8 8/8 - - -
Ortszeit Bedeckungsgrad in Achtel und Wolkenuntergrenze
Fr, 24.05. 11:30 3(6300m) 5(7200m)
Fr, 24.05. 11:20 3(6300m) 5(7200m)
Fr, 24.05. 11:10 2(7200m)
Fr, 24.05. 11:00 keine Wolken
Fr, 24.05. 10:50 keine Wolken
Fr, 24.05. 10:40 keine Wolken
Fr, 24.05. 10:30 keine Wolken
Fr, 24.05. 10:00 2(7200m)
Fr, 24.05. 9:30 5(7200m)
Fr, 24.05. 9:00 keine Wolken
Fr, 24.05. 8:30 1(7500m)
Ortszeit Stationsdruck (hPa) Tendenz (hPa in 3 Std.)
Fr, 24.05. 8:00 903 - 0,2
Fr, 24.05. 2:00 904 - 0,7
Do, 23.05. 20:00 905 - 0,4
Do, 23.05. 14:00 906 - 0,6
Do, 23.05. 8:00 907 + 0,3
Do, 23.05. 2:00 907 - 0,2
Mi, 22.05. 20:00 906 + 0,3
Mi, 22.05. 14:00 906 + 0,7
Ortszeit Stationsdruck (hPa) Tendenz (hPa in 3 Std.)
Fr, 24.05. 11:30 904 + 0,3
Fr, 24.05. 11:20 904 keine Meldung
Fr, 24.05. 11:10 904 keine Meldung
Fr, 24.05. 11:00 904 + 0,4
Fr, 24.05. 10:50 904 keine Meldung
Fr, 24.05. 10:40 904 keine Meldung
Fr, 24.05. 10:30 904 + 0,2
Fr, 24.05. 10:00 904 + 0,2
Fr, 24.05. 9:30 904 + 0,2
Fr, 24.05. 9:00 904 + 0,3
Fr, 24.05. 8:30 903 0,0
Ortszeit Schneehöhe (cm)
Fr, 24.05. 8:00 -
Fr, 24.05. 2:00 -
Do, 23.05. 20:00 -
Do, 23.05. 14:00 -
Do, 23.05. 8:00 -
Do, 23.05. 2:00 -
Mi, 22.05. 20:00 -
Mi, 22.05. 14:00 -
Ortszeit Schneehöhe (cm)
Fr, 24.05. 11:30 -
Fr, 24.05. 11:20 -
Fr, 24.05. 11:10 -
Fr, 24.05. 11:00 -
Fr, 24.05. 10:50 -
Fr, 24.05. 10:40 -
Fr, 24.05. 10:30 -
Fr, 24.05. 10:00 -
Fr, 24.05. 9:30 -
Fr, 24.05. 9:00 -
Fr, 24.05. 8:30 -
Link zu dieser Seite / Seite empfehlen

Das Wetter in ...